Etusivu
METAR-TAF:

METAR-TAF

Lentoasemat :

Brown Field Municipal Airport

San Diego, Kalifornia, Yhdysvallat

Leveyspiiri: 32-34-31N, Pituuspiiri: 116-59-35W, korkeus merenpinnasta: 164 m

Tämänhetkinen sää

Tämä raportti tehtiin 32 minuuttia sitten, kello 13.53 UTC
tyyntä
Lämpötila 9°C
Kosteus 34%
Ilmanpaine 1021 hPa
Näkyvyys: 16.1 km
selkeää

METAR: KSDM 281353Z AUTO 00000KT 10SM CLR 09/M06 A3015 RMK AO2 SLP208 T00891061

Aika: 06:25 (14:25 UTC)


TAF: puuttuu

Säähavainnot ja -ennusteet yli 4000 lentoasemalta (METAR- ja TAF-raportit).

Käytössä olevat sääasemat on merkitty karttaan keltaisilla ja punaisilla pisteillä.

Aseta hiiri pisteen päälle nähdäksesi sääaseman nimen.

Klikkaa sitten nähdäksesi säähavainnot ja -ennusteet.

Kartan vaihtaminen: klikkaa mustalla rastilla varustettuja vihreitä pisteitä, niin voit zoomata sisään; viivalla varustettua vihreää pistettä, niin voit zoomata ulos tai vihreitä nuolia, niin pääset viereisille kartoille.


METAR-TAF: